User: anonymous   Login
Location: Bowden
(51.9167°N, 114.0333°W)
Time: 01:10:51
(UTC+00:00)
Language:

Envisat - Orbit

View from above orbital plane
View from above orbital plane
View from above satellite
View from above satellite

Ground track
Ground track

The orbit data is extracted from the following two-line orbital elements,

1 27386U 02009A   22028.48697001  .00000089  00000-0  42938-4 0  9993
2 27386  98.1692  16.2724 0001188  86.9891  80.2810 14.38071900 43340
Epoch (UTC): 28 January 2022 11:41:14
Eccentricity: 0.0001188
inclination: 98.1692°
perigee height: 764 km
apogee height: 766 km
right ascension of ascending node: 16.2724°
argument of perigee: 86.9891°
revolutions per day: 14.38071900
mean anomaly at epoch: 80.2810°
orbit number at epoch: 4334

The dashed part of the orbit path shows where the satellite is in the earth's shadow,  

DLR